Total_Precipitation_Accumulation
0.02 0.05 0.09 0.08 0.06 0.05 0.05 0.04 0.03 0.05 0.08 0.16 0.24 0.24 0.16 0.12 0.11 0.10 0.08 0.06 0.07 0.10 0.12 0.16 0.17 0.19 0.24 0.34 0.39 0.48 0.57 0.59 0.54 0.49 0.48 0.48 0.47 0.45 0.46 0.50 0.52 0.55 0.51 0.45
0.04 0.06 0.08 0.06 0.06 0.05 0.05 0.04 0.04 0.06 0.09 0.14 0.22 0.21 0.13 0.09 0.08 0.08 0.10 0.11 0.11 0.15 0.20 0.22 0.26 0.32 0.40 0.49 0.60 0.78 0.95 0.94 0.88 0.80 0.77 0.74 0.70 0.68 0.73 0.74 0.75 0.72 0.65 0.61
0.09 0.09 0.09 0.07 0.07 0.07 0.06 0.07 0.07 0.10 0.13 0.17 0.21 0.19 0.13 0.10 0.09 0.10 0.12 0.13 0.14 0.18 0.23 0.30 0.34 0.40 0.49 0.59 0.71 0.80 0.86 0.82 0.84 0.85 0.86 0.85 0.83 0.83 0.82 0.82 0.82 0.81 0.80 0.77
0.16 0.18 0.18 0.10 0.12 0.13 0.14 0.16 0.18 0.16 0.20 0.23 0.24 0.21 0.19 0.16 0.15 0.14 0.13 0.14 0.15 0.19 0.22 0.28 0.36 0.43 0.53 0.57 0.59 0.67 0.68 0.63 0.58 0.59 0.59 0.59 0.62 0.67 0.71 0.76 0.77 0.77 0.73 0.65
0.28 0.24 0.24 0.24 0.22 0.21 0.25 0.30 0.26 0.29 0.35 0.35 0.30 0.28 0.27 0.23 0.22 0.20 0.19 0.17 0.16 0.18 0.20 0.24 0.28 0.32 0.35 0.36 0.39 0.45 0.47 0.45 0.41 0.40 0.41 0.42 0.47 0.57 0.67 0.71 0.66 0.61 0.58 0.58
0.38 0.37 0.35 0.34 0.40 0.29 0.30 0.48 0.51 0.49 0.46 0.39 0.36 0.42 0.37 0.25 0.20 0.20 0.19 0.16 0.14 0.13 0.15 0.16 0.18 0.20 0.23 0.27 0.31 0.35 0.37 0.36 0.35 0.36 0.37 0.39 0.43 0.47 0.50 0.52 0.52 0.50 0.46 0.48
0.38 0.41 0.43 0.41 0.38 0.34 0.50 0.63 0.70 0.77 0.71 0.55 0.50 0.46 0.37 0.27 0.21 0.18 0.17 0.15 0.12 0.10 0.11 0.13 0.15 0.18 0.21 0.22 0.24 0.24 0.25 0.27 0.27 0.28 0.32 0.33 0.36 0.38 0.41 0.44 0.43 0.41 0.39 0.41
0.52 0.67 0.75 0.61 0.54 0.64 0.71 0.53 0.54 0.67 0.80 0.76 0.65 0.49 0.38 0.28 0.21 0.17 0.13 0.12 0.11 0.10 0.10 0.12 0.15 0.17 0.19 0.19 0.18 0.17 0.19 0.22 0.24 0.26 0.28 0.30 0.34 0.35 0.35 0.34 0.32 0.32 0.33 0.34
0.75 0.85 0.77 0.68 0.67 0.63 0.71 0.78 0.77 0.82 0.92 0.86 0.72 0.51 0.35 0.25 0.18 0.13 0.11 0.10 0.09 0.09 0.09 0.11 0.13 0.15 0.18 0.18 0.17 0.18 0.21 0.22 0.23 0.24 0.27 0.31 0.35 0.36 0.37 0.37 0.36 0.33 0.30 0.27
0.79 0.87 0.75 0.64 0.67 0.67 0.72 0.88 0.93 0.82 0.77 0.68 0.58 0.47 0.34 0.22 0.14 0.10 0.08 0.07 0.08 0.08 0.09 0.10 0.11 0.13 0.16 0.17 0.19 0.21 0.22 0.21 0.21 0.21 0.21 0.25 0.32 0.36 0.37 0.37 0.36 0.33 0.31 0.31
0.80 0.92 0.88 0.82 0.77 0.72 0.75 0.75 0.83 0.74 0.70 0.62 0.51 0.43 0.35 0.26 0.18 0.11 0.07 0.07 0.07 0.08 0.09 0.09 0.09 0.10 0.11 0.15 0.19 0.22 0.23 0.21 0.20 0.18 0.19 0.22 0.27 0.29 0.26 0.28 0.25 0.23 0.24 0.26
0.92 0.98 1.09 1.04 0.86 0.75 0.78 0.74 0.71 0.65 0.63 0.57 0.46 0.41 0.36 0.32 0.25 0.17 0.12 0.10 0.09 0.09 0.08 0.08 0.07 0.07 0.08 0.10 0.17 0.24 0.27 0.24 0.21 0.19 0.20 0.22 0.23 0.24 0.23 0.20 0.18 0.19 0.20 0.18
0.68 0.85 1.00 0.92 0.74 0.69 0.65 0.65 0.65 0.62 0.58 0.48 0.40 0.35 0.31 0.27 0.24 0.18 0.15 0.13 0.10 0.08 0.07 0.05 0.04 0.04 0.05 0.08 0.15 0.22 0.25 0.24 0.20 0.17 0.17 0.19 0.21 0.27 0.33 0.31 0.24 0.22 0.28 0.24
0.58 0.71 0.87 0.81 0.77 0.70 0.52 0.48 0.49 0.49 0.50 0.44 0.38 0.30 0.21 0.16 0.14 0.12 0.11 0.08 0.06 0.04 0.04 0.03 0.03 0.05 0.06 0.08 0.14 0.20 0.23 0.22 0.18 0.16 0.18 0.20 0.21 0.26 0.33 0.41 0.47 0.41 0.37 0.35
0.56 0.59 0.60 0.56 0.57 0.57 0.47 0.40 0.35 0.36 0.35 0.32 0.30 0.22 0.14 0.10 0.09 0.08 0.06 0.04 0.03 0.03 0.03 0.03 0.03 0.05 0.06 0.07 0.13 0.16 0.19 0.16 0.14 0.15 0.18 0.21 0.24 0.26 0.30 0.36 0.43 0.44 0.40 0.39
0.51 0.42 0.38 0.41 0.41 0.38 0.37 0.34 0.29 0.27 0.23 0.20 0.18 0.13 0.10 0.08 0.06 0.05 0.04 0.04 0.04 0.04 0.03 0.04 0.04 0.05 0.06 0.07 0.11 0.14 0.16 0.15 0.12 0.11 0.14 0.19 0.24 0.27 0.29 0.35 0.40 0.43 0.41 0.41
0.40 0.33 0.29 0.28 0.27 0.24 0.25 0.24 0.21 0.16 0.14 0.13 0.12 0.09 0.07 0.06 0.05 0.05 0.04 0.04 0.03 0.03 0.04 0.04 0.04 0.05 0.07 0.09 0.13 0.18 0.17 0.14 0.14 0.13 0.15 0.20 0.25 0.29 0.30 0.37 0.44 0.44 0.39 0.32
0.27 0.21 0.21 0.21 0.18 0.17 0.15 0.13 0.11 0.09 0.08 0.07 0.06 0.05 0.05 0.05 0.05 0.05 0.04 0.04 0.03 0.04 0.04 0.03 0.04 0.05 0.07 0.09 0.12 0.19 0.20 0.17 0.16 0.16 0.18 0.19 0.20 0.26 0.29 0.31 0.33 0.37 0.40 0.34
0.21 0.19 0.19 0.17 0.16 0.14 0.10 0.07 0.05 0.04 0.04 0.03 0.03 0.04 0.04 0.03 0.03 0.02 0.03 0.05 0.08 0.10 0.08 0.04 0.04 0.05 0.08 0.11 0.12 0.16 0.20 0.19 0.17 0.18 0.19 0.18 0.21 0.26 0.27 0.29 0.34 0.40 0.44 0.48
0.17 0.15 0.15 0.14 0.10 0.07 0.05 0.03 0.03 0.02 0.02 0.02 0.02 0.02 0.02 0.02 0.02 0.03 0.04 0.07 0.11 0.12 0.07 0.04 0.03 0.05 0.08 0.10 0.13 0.14 0.18 0.18 0.16 0.17 0.20 0.24 0.26 0.29 0.30 0.30 0.36 0.44 0.51 0.59
0.15 0.12 0.09 0.08 0.05 0.03 0.02 0.02 0.02 0.02 0.01 0.01 0.02 0.02 0.03 0.03 0.03 0.04 0.07 0.11 0.11 0.08 0.07 0.08 0.07 0.07 0.07 0.09 0.12 0.14 0.21 0.25 0.23 0.23 0.23 0.25 0.28 0.29 0.29 0.32 0.39 0.51 0.59 0.64
0.15 0.13 0.11 0.08 0.05 0.04 0.03 0.02 0.01 0.01 0.01 0.02 0.02 0.03 0.04 0.05 0.05 0.07 0.09 0.14 0.14 0.14 0.11 0.09 0.08 0.07 0.06 0.07 0.09 0.14 0.20 0.28 0.31 0.30 0.25 0.23 0.27 0.30 0.31 0.34 0.40 0.45 0.53 0.57
0.11 0.09 0.09 0.08 0.07 0.05 0.04 0.03 0.02 0.03 0.03 0.03 0.03 0.04 0.05 0.06 0.08 0.12 0.17 0.16 0.15 0.15 0.11 0.11 0.10 0.07 0.06 0.07 0.10 0.15 0.16 0.20 0.24 0.25 0.25 0.24 0.27 0.32 0.34 0.34 0.33 0.36 0.44 0.50
0.08 0.06 0.05 0.06 0.05 0.04 0.03 0.03 0.02 0.03 0.03 0.03 0.03 0.04 0.06 0.09 0.13 0.16 0.22 0.24 0.20 0.16 0.14 0.13 0.09 0.07 0.08 0.10 0.13 0.15 0.15 0.15 0.16 0.18 0.19 0.20 0.22 0.26 0.27 0.27 0.27 0.28 0.36 0.48
0.07 0.05 0.04 0.04 0.04 0.04 0.03 0.03 0.04 0.05 0.05 0.06 0.07 0.08 0.10 0.14 0.21 0.27 0.29 0.26 0.25 0.21 0.17 0.13 0.11 0.10 0.10 0.12 0.13 0.13 0.15 0.17 0.17 0.14 0.14 0.18 0.20 0.21 0.21 0.21 0.23 0.26 0.31 0.40
0.05 0.04 0.04 0.04 0.04 0.04 0.05 0.05 0.08 0.10 0.11 0.12 0.12 0.10 0.11 0.17 0.26 0.35 0.36 0.33 0.27 0.22 0.19 0.16 0.13 0.12 0.11 0.12 0.13 0.14 0.15 0.18 0.20 0.18 0.17 0.18 0.19 0.19 0.18 0.20 0.24 0.28 0.32 0.33
0.04 0.04 0.05 0.06 0.06 0.06 0.07 0.09 0.11 0.14 0.17 0.18 0.18 0.16 0.20 0.27 0.34 0.38 0.36 0.34 0.29 0.23 0.17 0.12 0.11 0.12 0.13 0.13 0.14 0.14 0.14 0.16 0.20 0.29 0.43 0.49 0.34 0.20 0.19 0.20 0.23 0.29 0.34 0.33